Radiation Dose at Monitoring Post of Fukushima Daini Nuclear Power Station
Date,Time,MP-1(microSv/h),MP-2(microSv/h),MP-3(microSv/h),MP-4(microSv/h),MP-5(microSv/h),MP-6(microSv/h),MP-7(microSv/h),Wind Direction,Wind Velocity(m/s),Rain
2014/12/01,00:00,0.593,0.389,0.641,0.571,0.576,0.264,0.230,south,1.9,Yes
2014/12/01,00:10,0.594,0.389,0.638,0.574,0.576,0.265,0.230,south-southwest,0.9,Yes
2014/12/01,00:20,0.593,0.389,0.638,0.571,0.576,0.263,0.229,south,0.6,Yes
2014/12/01,00:30,0.594,0.390,0.639,0.572,0.576,0.265,0.231,south-southwest,1.8,Yes
2014/12/01,00:40,0.594,0.388,0.640,0.572,0.575,0.265,0.230,south-southwest,2.8,Yes
2014/12/01,00:50,0.593,0.388,0.640,0.573,0.576,0.264,0.230,south-southwest,3.1,Yes
2014/12/01,01:00,0.593,0.389,0.640,0.572,0.576,0.266,0.231,south-southwest,3.1,Yes
2014/12/01,01:10,0.595,0.393,0.642,0.573,0.579,0.267,0.233,south,3.2,Yes
2014/12/01,01:20,0.597,0.392,0.641,0.575,0.576,0.269,0.234,south,3.3,Yes
2014/12/01,01:30,0.595,0.394,0.641,0.575,0.578,0.269,0.233,south,3.2,Yes
2014/12/01,01:40,0.595,0.393,0.641,0.573,0.578,0.271,0.233,south-southwest,3.3,Yes
2014/12/01,01:50,0.595,0.395,0.638,0.575,0.578,0.269,0.235,south-southwest,3.1,Yes
2014/12/01,02:00,0.597,0.394,0.639,0.573,0.578,0.269,0.233,south,2.9,Yes
2014/12/01,02:10,0.595,0.393,0.640,0.573,0.577,0.269,0.233,south,3.3,Yes
2014/12/01,02:20,0.595,0.394,0.638,0.573,0.577,0.268,0.234,south,2.3,Yes
2014/12/01,02:30,0.593,0.392,0.637,0.575,0.577,0.268,0.234,south-southeast,2.0,Yes
2014/12/01,02:40,0.594,0.391,0.638,0.572,0.577,0.267,0.232,south,2.9,Yes
2014/12/01,02:50,0.595,0.391,0.638,0.570,0.576,0.268,0.233,south,3.0,Yes
2014/12/01,03:00,0.593,0.391,0.637,0.569,0.576,0.267,0.233,south-southeast,2.6,Yes
2014/12/01,03:10,0.593,0.391,0.636,0.569,0.575,0.266,0.232,south,2.7,Yes
2014/12/01,03:20,0.593,0.391,0.635,0.570,0.576,0.266,0.232,south-southwest,1.9,Yes
2014/12/01,03:30,0.592,0.389,0.635,0.569,0.575,0.266,0.231,south-southeast,1.4,Yes
2014/12/01,03:40,0.593,0.389,0.636,0.569,0.575,0.266,0.232,southeast,1.0,Yes
2014/12/01,03:50,0.591,0.391,0.635,0.569,0.576,0.267,0.232,southeast,1.1,Yes
2014/12/01,04:00,0.591,0.389,0.634,0.569,0.577,0.267,0.232,south-southeast,1.3,Yes
2014/12/01,04:10,0.590,0.389,0.635,0.568,0.573,0.267,0.231,south,1.4,Yes
2014/12/01,04:20,0.592,0.390,0.633,0.569,0.575,0.265,0.231,south,1.4,Yes
2014/12/01,04:30,0.590,0.390,0.636,0.569,0.575,0.267,0.230,south,1.3,Yes
2014/12/01,04:40,0.591,0.390,0.636,0.566,0.576,0.266,0.231,southeast,0.8,Yes
2014/12/01,04:50,0.590,0.390,0.635,0.567,0.573,0.266,0.230,east,0.7,Yes
2014/12/01,05:00,0.590,0.389,0.633,0.567,0.574,0.265,0.229,east-northeast,0.5,Yes
2014/12/01,05:10,0.589,0.388,0.633,0.569,0.574,0.264,0.229,-,CALM,Yes
2014/12/01,05:20,0.588,0.388,0.633,0.568,0.575,0.265,0.230,-,CALM,Yes
2014/12/01,05:30,0.590,0.389,0.633,0.567,0.574,0.265,0.229,west-southwest,0.5,Yes
2014/12/01,05:40,0.590,0.390,0.631,0.567,0.573,0.266,0.231,-,CALM,Yes
2014/12/01,05:50,0.591,0.391,0.632,0.565,0.575,0.267,0.230,-,CALM,Yes
2014/12/01,06:00,0.592,0.391,0.631,0.567,0.574,0.266,0.231,-,CALM,Yes
2014/12/01,06:10,0.591,0.391,0.630,0.567,0.574,0.268,0.230,-,CALM,Yes
2014/12/01,06:20,0.589,0.391,0.631,0.566,0.575,0.265,0.230,-,CALM,Yes
2014/12/01,06:30,0.589,0.391,0.631,0.566,0.574,0.267,0.232,-,CALM,Yes
2014/12/01,06:40,0.590,0.391,0.631,0.566,0.575,0.266,0.231,-,CALM,Yes
2014/12/01,06:50,0.589,0.392,0.631,0.567,0.575,0.268,0.232,-,CALM,Yes
2014/12/01,07:00,0.590,0.392,0.630,0.565,0.574,0.269,0.232,-,CALM,Yes
2014/12/01,07:10,0.591,0.391,0.630,0.565,0.575,0.268,0.231,-,CALM,Yes
2014/12/01,07:20,0.589,0.390,0.629,0.566,0.576,0.268,0.230,-,CALM,Yes
2014/12/01,07:30,0.589,0.391,0.629,0.566,0.574,0.267,0.232,-,CALM,Yes
2014/12/01,07:40,0.588,0.390,0.629,0.564,0.575,0.266,0.229,south-southwest,0.7,Yes
2014/12/01,07:50,0.588,0.390,0.627,0.565,0.576,0.266,0.230,southwest,2.0,Yes
2014/12/01,08:00,0.588,0.391,0.629,0.565,0.575,0.267,0.231,south-southwest,2.1,Yes
2014/12/01,08:10,0.589,0.390,0.629,0.564,0.576,0.266,0.231,south,0.9,Yes
2014/12/01,08:20,0.587,0.390,0.628,0.563,0.576,0.264,0.229,west-southwest,1.0,Yes
2014/12/01,08:30,0.588,0.388,0.629,0.562,0.574,0.264,0.228,south-southwest,1.5,Yes
2014/12/01,08:40,0.587,0.387,0.627,0.562,0.572,0.264,0.227,south,2.3,Yes
2014/12/01,08:50,0.586,0.388,0.628,0.563,0.573,0.264,0.228,south,2.6,Yes
2014/12/01,09:00,0.587,0.387,0.630,0.563,0.573,0.262,0.226,south,3.4,No
2014/12/01,09:10,0.587,0.386,0.627,0.562,0.573,0.263,0.227,south,3.6,No
2014/12/01,09:20,0.586,0.386,0.626,0.563,0.571,0.261,0.226,south,3.6,No
2014/12/01,09:30,0.583,0.385,0.628,0.561,0.574,0.262,0.226,south-southeast,2.2,Yes
2014/12/01,09:40,0.584,0.384,0.627,0.560,0.572,0.261,0.226,south,3.3,No
2014/12/01,09:50,0.585,0.383,0.626,0.562,0.573,0.260,0.224,south-southwest,4.5,Yes
2014/12/01,10:00,0.585,0.384,0.628,0.563,0.571,0.261,0.226,south-southwest,5.6,No
2014/12/01,10:10,0.584,0.384,0.627,0.563,0.572,0.261,0.226,south-southwest,5.9,Yes
2014/12/01,10:20,0.583,0.384,0.631,0.562,0.571,0.259,0.225,south-southwest,7.5,Yes
2014/12/01,10:30,0.586,0.385,0.629,0.561,0.570,0.260,0.226,south-southwest,8.7,Yes
2014/12/01,10:40,0.584,0.384,0.628,0.563,0.571,0.260,0.225,south-southwest,9.1,Yes
2014/12/01,10:50,0.584,0.384,0.629,0.563,0.571,0.262,0.226,south-southwest,8.8,Yes
2014/12/01,11:00,0.585,0.385,0.628,0.564,0.571,0.262,0.225,south-southwest,7.3,Yes
2014/12/01,11:10,0.585,0.384,0.631,0.562,0.573,0.262,0.226,south-southwest,8.3,Yes
2014/12/01,11:20,0.586,0.385,0.629,0.564,0.571,0.262,0.225,south-southwest,8.4,Yes
2014/12/01,11:30,0.586,0.385,0.626,0.562,0.572,0.262,0.227,south-southwest,7.3,Yes
2014/12/01,11:40,0.584,0.386,0.628,0.563,0.572,0.262,0.227,south-southwest,8.1,Yes
2014/12/01,11:50,0.586,0.386,0.627,0.561,0.573,0.263,0.226,south-southwest,7.9,Yes
2014/12/01,12:00,0.584,0.387,0.628,0.564,0.573,0.263,0.228,south-southwest,8.1,Yes
2014/12/01,12:10,0.586,0.387,0.628,0.562,0.572,0.265,0.228,south-southwest,7.2,Yes
2014/12/01,12:20,0.587,0.387,0.629,0.564,0.572,0.265,0.230,south-southwest,8.3,Yes
2014/12/01,12:30,0.586,0.389,0.630,0.564,0.571,0.264,0.227,south-southwest,7.2,Yes
2014/12/01,12:40,0.586,0.388,0.628,0.563,0.572,0.265,0.228,south-southwest,6.3,Yes
2014/12/01,12:50,0.585,0.387,0.628,0.562,0.574,0.265,0.228,south-southwest,6.8,Yes
2014/12/01,13:00,0.586,0.385,0.627,0.564,0.572,0.264,0.228,south-southwest,6.9,Yes
2014/12/01,13:10,0.584,0.386,0.629,0.562,0.574,0.264,0.228,south-southwest,6.8,Yes
2014/12/01,13:20,0.586,0.387,0.629,0.563,0.572,0.265,0.229,south-southwest,7.8,Yes
2014/12/01,13:30,0.585,0.386,0.629,0.562,0.570,0.263,0.228,south-southwest,8.1,Yes
2014/12/01,13:40,0.587,0.386,0.627,0.564,0.571,0.265,0.228,south-southwest,6.7,Yes
2014/12/01,13:50,0.584,0.385,0.628,0.562,0.569,0.262,0.227,south-southwest,7.5,Yes
2014/12/01,14:00,0.584,0.384,0.627,0.561,0.572,0.263,0.227,south-southwest,6.6,No
2014/12/01,14:10,0.584,0.383,0.629,0.561,0.571,0.261,0.225,south-southwest,7.3,No
2014/12/01,14:20,0.584,0.383,0.625,0.562,0.572,0.262,0.226,south-southwest,8.5,No
2014/12/01,14:30,0.583,0.384,0.628,0.562,0.569,0.261,0.225,south-southwest,9.7,No
2014/12/01,14:40,0.583,0.383,0.628,0.562,0.571,0.261,0.226,south-southwest,8.0,No
2014/12/01,14:50,0.582,0.384,0.627,0.562,0.570,0.261,0.224,south-southwest,4.5,No
2014/12/01,15:00,0.584,0.382,0.628,0.559,0.571,0.259,0.225,north-northwest,0.6,No
2014/12/01,15:10,0.583,0.382,0.625,0.560,0.570,0.260,0.223,north-northwest,1.0,No
2014/12/01,15:20,0.584,0.382,0.627,0.561,0.570,0.259,0.224,northwest,3.9,No
2014/12/01,15:30,0.584,0.381,0.629,0.562,0.569,0.260,0.224,west,4.4,No
2014/12/01,15:40,0.584,0.382,0.629,0.561,0.569,0.259,0.224,west-southwest,4.5,No
2014/12/01,15:50,0.587,0.382,0.628,0.562,0.569,0.260,0.223,west,4.7,No
2014/12/01,16:00,0.584,0.383,0.629,0.562,0.567,0.259,0.224,west,3.3,No
2014/12/01,16:10,0.584,0.382,0.628,0.560,0.571,0.261,0.224,west,3.3,No
2014/12/01,16:20,0.584,0.383,0.627,0.561,0.569,0.260,0.223,northwest,2.6,No
2014/12/01,16:30,0.584,0.382,0.628,0.559,0.571,0.261,0.223,west-northwest,3.9,No
2014/12/01,16:40,0.585,0.383,0.629,0.561,0.570,0.260,0.223,west-northwest,5.8,Yes
2014/12/01,16:50,0.585,0.383,0.631,0.562,0.572,0.262,0.226,west,3.4,Yes
2014/12/01,17:00,0.587,0.387,0.632,0.563,0.572,0.262,0.226,west,8.1,Yes
2014/12/01,17:10,0.589,0.386,0.632,0.565,0.574,0.264,0.228,west,11.0,Yes
2014/12/01,17:20,0.590,0.387,0.634,0.567,0.573,0.264,0.229,west-northwest,8.6,Yes
2014/12/01,17:30,0.592,0.389,0.634,0.569,0.575,0.267,0.232,west,10.5,Yes
2014/12/01,17:40,0.593,0.390,0.637,0.569,0.576,0.270,0.233,northwest,5.5,Yes
2014/12/01,17:50,0.596,0.394,0.639,0.571,0.577,0.272,0.235,north-northeast,5.8,Yes
2014/12/01,18:00,0.594,0.393,0.637,0.572,0.579,0.271,0.235,north,4.5,Yes
2014/12/01,18:10,0.595,0.393,0.638,0.571,0.577,0.269,0.234,north-northwest,3.5,No
2014/12/01,18:20,0.592,0.392,0.636,0.569,0.576,0.268,0.232,north,5.0,Yes
2014/12/01,18:30,0.591,0.391,0.635,0.566,0.575,0.268,0.232,north-northwest,6.2,Yes
2014/12/01,18:40,0.592,0.390,0.636,0.569,0.575,0.269,0.232,north-northwest,5.0,Yes
2014/12/01,18:50,0.595,0.393,0.637,0.570,0.577,0.270,0.234,north-northwest,4.3,Yes
2014/12/01,19:00,0.597,0.393,0.637,0.571,0.577,0.272,0.235,north-northwest,3.5,Yes
2014/12/01,19:10,0.595,0.394,0.637,0.571,0.577,0.270,0.234,north,3.3,No
2014/12/01,19:20,0.594,0.391,0.638,0.569,0.577,0.268,0.232,north,4.9,No
2014/12/01,19:30,0.594,0.390,0.635,0.567,0.576,0.268,0.232,north,4.3,No
2014/12/01,19:40,0.591,0.387,0.634,0.568,0.575,0.266,0.230,northwest,8.5,No
2014/12/01,19:50,0.590,0.387,0.636,0.568,0.576,0.267,0.229,west-northwest,8.1,No
2014/12/01,20:00,0.589,0.387,0.634,0.566,0.575,0.264,0.229,northwest,8.3,No
2014/12/01,20:10,0.590,0.386,0.635,0.566,0.574,0.264,0.227,northwest,8.9,No
2014/12/01,20:20,0.591,0.386,0.634,0.565,0.571,0.264,0.227,west-northwest,9.5,No
2014/12/01,20:30,0.590,0.385,0.635,0.563,0.572,0.264,0.227,west-northwest,9.0,No
2014/12/01,20:40,0.588,0.386,0.635,0.565,0.572,0.264,0.227,west,12.1,No
2014/12/01,20:50,0.591,0.386,0.635,0.564,0.569,0.263,0.228,west-northwest,10.2,No
2014/12/01,21:00,0.589,0.387,0.633,0.565,0.571,0.263,0.227,west-northwest,11.1,No
2014/12/01,21:10,0.590,0.384,0.634,0.563,0.572,0.263,0.227,northwest,7.3,No
2014/12/01,21:20,0.590,0.386,0.634,0.563,0.570,0.263,0.227,northwest,4.2,No
2014/12/01,21:30,0.590,0.385,0.634,0.565,0.570,0.263,0.225,north,4.9,No
2014/12/01,21:40,0.589,0.385,0.634,0.564,0.569,0.262,0.226,west-northwest,2.9,No
2014/12/01,21:50,0.589,0.384,0.631,0.563,0.570,0.263,0.226,north-northwest,0.8,No
2014/12/01,22:00,0.590,0.385,0.633,0.564,0.570,0.263,0.227,west,6.8,No
2014/12/01,22:10,0.589,0.385,0.633,0.566,0.569,0.262,0.226,west-northwest,13.4,No
2014/12/01,22:20,0.590,0.385,0.633,0.563,0.572,0.261,0.225,west,13.4,No
2014/12/01,22:30,0.589,0.386,0.633,0.562,0.571,0.263,0.226,west-northwest,12.6,No
2014/12/01,22:40,0.591,0.386,0.636,0.564,0.571,0.263,0.227,west-northwest,14.9,No
2014/12/01,22:50,0.590,0.386,0.635,0.565,0.571,0.263,0.227,west-northwest,12.2,No
2014/12/01,23:00,0.591,0.386,0.634,0.564,0.571,0.264,0.227,west,12.6,No
2014/12/01,23:10,0.590,0.387,0.635,0.564,0.570,0.263,0.226,west,15.2,No
2014/12/01,23:20,0.591,0.386,0.636,0.565,0.571,0.263,0.227,west,12.4,No
2014/12/01,23:30,0.591,0.386,0.635,0.566,0.570,0.263,0.228,west-northwest,12.8,No
2014/12/01,23:40,0.590,0.387,0.634,0.564,0.572,0.263,0.226,west,11.4,No
2014/12/01,23:50,0.593,0.385,0.635,0.564,0.570,0.263,0.227,west-northwest,10.2,No
